Wind_Speed
35 33 27 22 31 33 32 28 27 25 23 18 17 17 17 15 14 14 13 10 8 6
38 37 34 24 25 33 34 31 29 27 27 22 19 19 17 18 16 17 14 13 10 10
42 40 38 34 27 28 30 34 30 30 29 26 22 21 19 17 16 15 16 14 13 12
42 43 40 38 35 28 27 33 28 29 33 31 26 22 22 18 16 16 15 14 14 14
42 46 42 40 40 35 29 26 30 23 30 35 29 26 25 21 19 18 16 16 15 15
37 40 44 43 43 39 37 29 24 26 25 34 32 30 29 26 22 21 20 18 19 20
38 40 42 43 42 43 40 38 31 27 30 34 34 32 30 28 25 24 24 22 21 21
36 37 38 40 41 45 46 41 42 35 33 31 35 35 35 31 28 27 26 26 25 25
38 36 37 40 41 40 46 47 43 44 40 38 36 36 34 32 31 29 29 29 29 28
35 37 36 35 37 38 39 39 39 40 42 41 40 38 35 33 32 31 32 32 32 31
34 35 36 36 36 37 36 39 37 38 39 39 42 41 38 36 35 34 34 35 35 35
32 35 34 37 38 36 34 34 37 37 35 39 40 40 43 40 38 37 38 37 36 36
26 33 36 39 39 38 37 36 34 35 36 37 39 39 40 39 40 38 38 38 41 40
32 31 41 41 39 38 35 34 34 35 34 35 40 40 40 39 40 36 34 36 34 41
Wind_Direction
219 225 226 221 212 208 205 207 211 211 206 206 203 201 199 201 210 212 216 224 240 251
219 222 228 220 217 214 214 213 214 212 211 212 211 209 205 206 208 214 224 229 240 249
220 222 226 226 223 221 218 215 215 216 216 215 214 214 212 210 211 213 217 227 238 247
219 225 227 230 228 224 224 224 222 222 218 216 214 215 217 216 217 221 221 231 239 246
216 222 229 231 231 230 228 224 216 220 222 216 215 216 216 218 222 226 232 235 240 242
211 215 222 230 233 232 230 229 219 222 219 216 217 219 221 224 228 232 238 239 243 244
206 213 218 223 230 233 232 230 229 221 219 217 218 219 221 225 230 235 242 245 246 247
209 209 215 218 223 231 232 234 232 230 223 224 224 221 221 224 231 238 243 247 248 246
207 208 209 216 217 223 230 232 236 236 235 228 224 225 225 229 233 239 245 248 250 250
207 208 210 213 215 218 223 226 230 234 235 235 231 230 231 235 239 244 247 248 250 253
211 209 209 213 214 215 217 222 224 229 230 230 234 233 233 237 241 246 249 250 250 251
219 215 209 210 216 216 212 217 221 224 227 229 233 236 239 239 238 240 246 249 250 252
297 238 214 214 213 215 214 216 220 223 223 226 230 234 238 239 237 236 240 245 250 252
279 261 222 218 214 213 212 215 218 222 222 223 230 232 236 236 233 231 239 241 244 251
Height
834 837 840 842 843 845 847 847 849 851 854 855 856 858 859 861 863 865 866 867 868 869
829 833 836 839 840 842 844 845 847 849 851 853 855 856 858 859 861 863 864 865 866 867
826 829 832 836 839 839 841 844 846 847 849 852 853 855 856 857 858 860 861 862 863 864
821 826 829 832 836 838 839 841 844 844 846 849 851 853 854 855 856 857 858 859 860 861
814 821 825 828 830 835 837 839 841 841 842 844 847 850 851 852 853 854 855 857 858 859
807 812 818 823 826 830 833 836 837 838 838 841 843 846 848 849 851 852 853 855 855 856
798 804 810 816 821 824 827 830 832 834 835 836 838 841 844 846 847 848 850 851 852 853
792 796 803 808 813 817 820 823 826 828 831 833 834 836 839 841 842 844 845 847 848 849
785 789 793 798 804 810 812 815 819 821 824 826 828 831 834 837 838 839 841 842 843 844
778 782 786 792 796 800 803 808 811 814 817 819 821 825 828 832 833 834 835 836 838 839
772 775 779 786 788 791 795 799 803 806 809 813 814 817 822 825 828 828 828 830 831 832
769 769 772 775 781 784 787 791 794 797 801 804 806 809 814 818 821 821 821 823 824 826
766 767 766 767 771 775 778 780 786 790 792 795 798 801 805 810 813 814 814 816 816 818
754 756 756 759 763 768 769 773 777 782 784 786 788 791 795 800 804 805 806 807 807 808